User: anonymous   Login
Location: Unspecified
(0.0000°N, 0.0000°E)
Time: 22:24:45
(UTC+00:00)
Language:

TBA - TO BE ASSIGNED - Orbit

View from above orbital plane
View from above orbital plane
View from above satellite
View from above satellite

Ground track
Ground track

The orbit is defined by the following mean orbital elements,

1 68738U          26145.37735138 +.00000000 +00000-0 +60607-3 0 00002
2 68738  97.2857   8.9128 0000411 126.1129 234.0160 15.49221443    09
Epoch (UTC): 25 May 2026 09:03:23
Eccentricity: 0.0000411
inclination: 97.2857°
perigee height: 419 km
apogee height: 419 km
right ascension of ascending node: 8.9128°
argument of perigee: 126.1129°
revolutions per day: 15.49221443
mean anomaly at epoch: 234.0160°

The dashed part of the orbit path shows where the satellite is in the earth's shadow,  

DLR